When you browse on this site, cookies collect data to enhance your experience and personalize the content and advertising you see.
Visit our Privacy Policy to learn more. By continuing to use the site, you agree to this use of cookies and data.
  • In Spain
  • List of Countries
  • For 7 days
  • Water Temperature
  • Satellite Maps
  • Weather Map
  • Weather Widgets
  • user-avatar
    Login

    Hourly Weather Annaba

    Today, 16 December, Sunday

    Time Temperature Precipitation Wind Pressure Humidity
    00:00 +11°C° 0.1 mm 6 mps 765 mmHg 86%
    01:00 +11°C° 0 mm 6 mps 765 mmHg 85%
    02:00 +11°C° 0 mm 6 mps 765 mmHg 84%
    03:00 +10°C° 0 mm 6 mps 765 mmHg 83%
    04:00 +10°C° 0 mm 6 mps 765 mmHg 83%
    05:00 +10°C° 0 mm 5 mps 765 mmHg 81%
    06:00 +10°C° 0 mm 5 mps 765 mmHg 80%
    07:00 +11°C° 0 mm 4 mps 765 mmHg 78%
    08:00 +12°C° 0 mm 4 mps 765 mmHg 73%
    09:00 +13°C° 0 mm 4 mps 765 mmHg 68%
    10:00 +16°C° 0 mm 3 mps 765 mmHg 63%
    11:00 +18°C° 0 mm 3 mps 765 mmHg 58%
    12:00 +19°C° 0 mm 3 mps 764 mmHg 53%
    13:00 +21°C° 0 mm 2 mps 764 mmHg 48%
    14:00 +21°C° 0 mm 2 mps 764 mmHg 50%
    15:00 +22°C° 0 mm 1 mps 764 mmHg 52%
    16:00 +22°C° 0 mm 1 mps 763 mmHg 55%
    17:00 +21°C° 0 mm 1 mps 763 mmHg 56%
    18:00 +19°C° 0 mm 2 mps 763 mmHg 58%
    19:00 +17°C° 0 mm 2 mps 764 mmHg 60%
    20:00 +17°C° 0 mm 2 mps 764 mmHg 60%
    21:00 +17°C° 0 mm 3 mps 764 mmHg 61%
    22:00 +17°C° 0 mm 3 mps 764 mmHg 61%
    23:00 +15°C° 0 mm 4 mps 764 mmHg 62%

    Tomorrow, 17 December, Monday

    Time Temperature Precipitation Wind Pressure Humidity
    00:00 +15°C° 0 mm 4 mps 764 mmHg 64%
    01:00 +14°C° 0 mm 5 mps 764 mmHg 65%
    02:00 +14°C° 0 mm 5 mps 764 mmHg 65%
    03:00 +14°C° 0 mm 6 mps 764 mmHg 66%
    04:00 +14°C° 0 mm 7 mps 764 mmHg 66%
    05:00 +14°C° 0.1 mm 7 mps 764 mmHg 69%
    06:00 +14°C° 0.1 mm 7 mps 765 mmHg 73%
    07:00 +14°C° 0.1 mm 7 mps 765 mmHg 76%
    08:00 +13°C° 0.1 mm 8 mps 765 mmHg 76%
    09:00 +15°C° 0.1 mm 8 mps 766 mmHg 75%
    10:00 +16°C° 0.1 mm 8 mps 767 mmHg 75%
    11:00 +16°C° 0.1 mm 8 mps 767 mmHg 72%
    12:00 +16°C° 0.1 mm 8 mps 767 mmHg 69%
    13:00 +16°C° 0.1 mm 8 mps 767 mmHg 66%
    14:00 +16°C° 0.1 mm 8 mps 767 mmHg 67%
    15:00 +15°C° 0.1 mm 8 mps 767 mmHg 68%
    16:00 +15°C° 0.1 mm 7 mps 767 mmHg 69%
    17:00 +14°C° 0 mm 7 mps 768 mmHg 74%
    18:00 +13°C° 0 mm 6 mps 768 mmHg 78%
    19:00 +11°C° 0 mm 6 mps 768 mmHg 83%
    20:00 +11°C° 0 mm 6 mps 769 mmHg 83%
    21:00 +11°C° 0 mm 6 mps 769 mmHg 84%
    22:00 +12°C° 0 mm 5 mps 770 mmHg 84%
    23:00 +10°C° 0 mm 5 mps 770 mmHg 85%

    Day after tomorrow, 18 December, Tuesday

    Time Temperature Precipitation Wind Pressure Humidity
    00:00 +10°C° 0 mm 5 mps 770 mmHg 85%
    01:00 +10°C° 0 mm 5 mps 769 mmHg 85%
    02:00 +10°C° 0 mm 4 mps 769 mmHg 86%
    03:00 +10°C° 0 mm 4 mps 769 mmHg 86%
    04:00 +10°C° 0 mm 4 mps 769 mmHg 87%
    05:00 +10°C° 0 mm 4 mps 769 mmHg 86%
    06:00 +9°C° 0 mm 3 mps 769 mmHg 85%
    07:00 +9°C° 0 mm 3 mps 769 mmHg 84%
    08:00 +10°C° 0 mm 3 mps 769 mmHg 77%
    09:00 +12°C° 0 mm 3 mps 770 mmHg 71%
    10:00 +14°C° 0 mm 2 mps 770 mmHg 64%
    11:00 +15°C° 0 mm 2 mps 769 mmHg 58%
    12:00 +16°C° 0 mm 2 mps 769 mmHg 53%
    13:00 +18°C° 0 mm 1 mps 768 mmHg 48%
    14:00 +17°C° 0 mm 2 mps 768 mmHg 49%
    15:00 +17°C° 0 mm 2 mps 768 mmHg 51%
    16:00 +17°C° 0 mm 2 mps 767 mmHg 52%
    17:00 +16°C° 0 mm 3 mps 767 mmHg 56%
    18:00 +13°C° 0 mm 3 mps 767 mmHg 60%
    19:00 +12°C° 0 mm 3 mps 768 mmHg 63%
    20:00 +12°C° 0 mm 3 mps 768 mmHg 61%
    21:00 +12°C° 0 mm 4 mps 767 mmHg 60%
    22:00 +11°C° 0 mm 4 mps 767 mmHg 58%
    23:00 +11°C° 0 mm 4 mps 767 mmHg 56%

    19 December, Wednesday

    Time Temperature Precipitation Wind Pressure Humidity
    00:00 +11°C° 0 mm 4 mps 767 mmHg 53%
    01:00 +11°C° 0 mm 3 mps 766 mmHg 51%
    02:00 +11°C° 0 mm 3 mps 766 mmHg 52%
    03:00 +11°C° 0 mm 3 mps 766 mmHg 53%
    04:00 +11°C° 0 mm 3 mps 766 mmHg 54%
    05:00 +11°C° 0 mm 3 mps 766 mmHg 55%
    06:00 +11°C° 0 mm 3 mps 766 mmHg 56%
    07:00 +10°C° 0 mm 3 mps 766 mmHg 57%
    08:00 +12°C° 0 mm 3 mps 766 mmHg 55%
    09:00 +15°C° 0 mm 2 mps 766 mmHg 53%
    10:00 +16°C° 0 mm 2 mps 766 mmHg 51%
    11:00 +18°C° 0 mm 2 mps 765 mmHg 47%
    12:00 +19°C° 0 mm 2 mps 765 mmHg 44%
    13:00 +22°C° 0 mm 1 mps 765 mmHg 40%
    14:00 +21°C° 0 mm 2 mps 764 mmHg 44%
    15:00 +20°C° 0 mm 2 mps 764 mmHg 48%
    16:00 +20°C° 0 mm 2 mps 764 mmHg 53%
    17:00 +18°C° 0 mm 2 mps 764 mmHg 58%
    18:00 +16°C° 0 mm 2 mps 765 mmHg 63%
    19:00 +15°C° 0 mm 1 mps 765 mmHg 68%
    20:00 +15°C° 0 mm 2 mps 765 mmHg 68%
    21:00 +15°C° 0 mm 2 mps 765 mmHg 67%
    22:00 +14°C° 0 mm 2 mps 766 mmHg 67%
    23:00 +14°C° 0 mm 2 mps 766 mmHg 66%

    20 December, Thursday

    Time Temperature Precipitation Wind Pressure Humidity
    00:00 +14°C° 0 mm 3 mps 766 mmHg 65%
    01:00 +14°C° 0 mm 3 mps 766 mmHg 64%
    02:00 +13°C° 0 mm 3 mps 765 mmHg 65%
    03:00 +13°C° 0 mm 3 mps 765 mmHg 65%
    04:00 +13°C° 0 mm 3 mps 765 mmHg 66%
    05:00 +12°C° 0.1 mm 3 mps 766 mmHg 67%
    06:00 +12°C° 0.1 mm 3 mps 766 mmHg 68%
    07:00 +12°C° 0.1 mm 3 mps 766 mmHg 69%
    08:00 +13°C° 0.1 mm 3 mps 767 mmHg 67%
    09:00 +15°C° 0.1 mm 2 mps 767 mmHg 65%
    10:00 +17°C° 0.1 mm 2 mps 768 mmHg 62%
    11:00 +17°C° 0.1 mm 2 mps 767 mmHg 64%
    12:00 +18°C° 0.1 mm 3 mps 767 mmHg 66%
    13:00 +18°C° 0.1 mm 3 mps 767 mmHg 68%
    14:00 +18°C° 0.1 mm 3 mps 767 mmHg 72%
    15:00 +17°C° 0.1 mm 3 mps 767 mmHg 75%
    16:00 +16°C° 0.1 mm 3 mps 767 mmHg 79%
    17:00 +16°C° 0 mm 2 mps 767 mmHg 82%
    18:00 +15°C° 0 mm 2 mps 768 mmHg 85%
    19:00 +14°C° 0 mm 1 mps 768 mmHg 89%
    20:00 +14°C° 0 mm 1 mps 769 mmHg 89%
    21:00 +13°C° 0 mm 1 mps 769 mmHg 90%
    22:00 +12°C° 0 mm 0 mps 770 mmHg 90%
    23:00 +13°C° 0 mm 1 mps 770 mmHg 90%

    21 December, Friday

    Time Temperature Precipitation Wind Pressure Humidity
    00:00 +13°C° 0 mm 1 mps 770 mmHg 91%
    01:00 +12°C° 0 mm 1 mps 770 mmHg 91%
    02:00 +12°C° 0 mm 1 mps 770 mmHg 91%
    03:00 +12°C° 0 mm 1 mps 770 mmHg 91%
    04:00 +11°C° 0 mm 1 mps 770 mmHg 91%
    05:00 +10°C° 0 mm 2 mps 770 mmHg 91%
    06:00 +10°C° 0 mm 2 mps 770 mmHg 91%
    07:00 +10°C° 0 mm 2 mps 770 mmHg 91%
    08:00 +12°C° 0 mm 2 mps 771 mmHg 85%
    09:00 +13°C° 0 mm 2 mps 771 mmHg 80%
    10:00 +15°C° 0 mm 2 mps 771 mmHg 75%
    11:00 +16°C° 0 mm 2 mps 771 mmHg 69%
    12:00 +18°C° 0 mm 1 mps 771 mmHg 63%
    13:00 +19°C° 0 mm 1 mps 770 mmHg 57%
    14:00 +19°C° 0 mm 1 mps 770 mmHg 57%
    15:00 +17°C° 0 mm 2 mps 770 mmHg 58%
    16:00 +17°C° 0 mm 2 mps 770 mmHg 59%
    17:00 +16°C° 0 mm 1 mps 771 mmHg 65%
    18:00 +14°C° 0 mm 1 mps 771 mmHg 72%
    19:00 +12°C° 0 mm 0 mps 771 mmHg 79%
    20:00 +12°C° 0 mm 1 mps 772 mmHg 79%
    21:00 +12°C° 0 mm 1 mps 772 mmHg 79%
    22:00 +12°C° 0 mm 1 mps 772 mmHg 80%
    23:00 +12°C° 0 mm 2 mps 772 mmHg 80%
    Show more